Rye Patch Reservoir Weather Center

Moon Phase Calendar



Rye Patch Reservoir Water Level
Online Cameras

 


      

Current Conditions in Rose Creek
4/19/2024 2:55:17 PM

68°F
Feels Like 66
Clouds
Humidity
25%
Pressure
29.88"
Wind
2.6 mph (NNW)
Dew Point
31°F
UV Index
5/10 (Moderate)
Visibility
6 mi

Hourly Forecast

Date & Time Fri, Apr 19
2:00 PM
Fri, Apr 19
3:00 PM
Fri, Apr 19
4:00 PM
Fri, Apr 19
5:00 PM
Fri, Apr 19
6:00 PM
Fri, Apr 19
7:00 PM
Fri, Apr 19
8:00 PM
Fri, Apr 19
9:00 PM
Fri, Apr 19
10:00 PM
Fri, Apr 19
11:00 PM
Sat, Apr 20
12:00 AM
Sat, Apr 20
1:00 AM
Sat, Apr 20
2:00 AM
Sat, Apr 20
3:00 AM
Sat, Apr 20
4:00 AM
Sat, Apr 20
5:00 AM
Sat, Apr 20
6:00 AM
Sat, Apr 20
7:00 AM
Sat, Apr 20
8:00 AM
Sat, Apr 20
9:00 AM
Sat, Apr 20
10:00 AM
Sat, Apr 20
11:00 AM
Sat, Apr 20
12:00 PM
Sat, Apr 20
1:00 PM
Sat, Apr 20
2:00 PM
Sat, Apr 20
3:00 PM
Sat, Apr 20
4:00 PM
Sat, Apr 20
5:00 PM
Sat, Apr 20
6:00 PM
Sat, Apr 20
7:00 PM
Sat, Apr 20
8:00 PM
Sat, Apr 20
9:00 PM
Sat, Apr 20
10:00 PM
Sat, Apr 20
11:00 PM
Sun, Apr 21
12:00 AM
Sun, Apr 21
1:00 AM
Sun, Apr 21
2:00 AM
Sun, Apr 21
3:00 AM
Sun, Apr 21
4:00 AM
Sun, Apr 21
5:00 AM
Sun, Apr 21
6:00 AM
Sun, Apr 21
7:00 AM
Sun, Apr 21
8:00 AM
Sun, Apr 21
9:00 AM
Sun, Apr 21
10:00 AM
Sun, Apr 21
11:00 AM
Sun, Apr 21
12:00 PM
Sun, Apr 21
1:00 PM
Condition
Clouds

Clouds

Clouds

Clouds

Clouds

Clouds

Clouds

Clouds

Clouds

Clouds

Clouds

Clouds

Clouds

Clouds

Clouds

Clouds

Clouds

Clouds

Clouds

Clouds

Clouds

Clouds

Clouds

Clouds

Clouds

Clouds

Clouds

Clouds

Clouds

Clouds

Clouds

Clouds

Clouds

Clouds

Clouds

Clouds

Clouds

Clouds

Clouds

Clouds

Clear

Clear

Clear

Clear

Clear

Clear

Clouds

Clear
Temperature 67°F68°F68°F67°F67°F65°F62°F60°F59°F58°F57°F57°F56°F55°F55°F55°F54°F56°F59°F61°F63°F66°F68°F69°F71°F71°F72°F72°F71°F70°F67°F67°F64°F62°F60°F59°F58°F57°F56°F55°F54°F56°F59°F61°F63°F65°F68°F69°F
Feels Like 65°F66°F65°F65°F64°F63°F59°F58°F57°F56°F55°F54°F54°F53°F52°F52°F51°F54°F56°F58°F61°F63°F65°F67°F68°F69°F70°F70°F69°F68°F65°F64°F62°F60°F58°F57°F56°F55°F54°F53°F51°F54°F57°F59°F61°F63°F65°F67°F
Cloudiness 48%47%46%45%31%31%37%35%31%31%16%20%46%44%52%60%100%100%100%100%100%95%68%59%42%32%28%25%11%15%12%15%18%17%13%13%21%16%14%13%7%8%7%7%7%10%11%10%
Visibility 6 mi6 mi6 mi6 mi6 mi6 mi6 mi6 mi6 mi6 mi6 mi6 mi6 mi6 mi6 mi6 mi6 mi6 mi6 mi6 mi6 mi6 mi6 mi6 mi6 mi6 mi6 mi6 mi6 mi6 mi6 mi6 mi6 mi6 mi6 mi6 mi6 mi6 mi6 mi6 mi6 mi6 mi6 mi6 mi6 mi6 mi6 mi6 mi
Precipitation 0%0%0%0%0%0%0%0%0%0%0%0%0%0%0%0%0%0%0%0%0%0%0%0%0%0%0%0%0%0%0%0%0%0%0%0%0%0%0%0%0%0%0%0%0%0%0%0%
Humidity 26%25%24%24%24%26%30%33%36%39%41%41%42%43%44%44%45%44%36%34%32%28%25%23%22%21%21%22%24%27%33%30%36%43%48%49%51%51%52%54%57%55%46%40%34%29%25%22%
Dew Point 31°F31°F30°F30°F29°F30°F29°F30°F31°F32°F32°F32°F32°F31°F31°F32°F31°F33°F30°F31°F31°F30°F29°F28°F29°F29°F28°F29°F30°F33°F35°F33°F35°F37°F38°F38°F38°F38°F37°F37°F37°F38°F36°F35°F33°F31°F29°F27°F
Pressure 29.88"29.88"29.88"29.88"29.85"29.85"29.88"29.91"29.91"29.91"29.91"29.91"29.91"29.91"29.94"29.94"29.94"29.97"30"30"30"30"29.97"29.97"29.94"29.94"29.91"29.91"29.91"29.91"29.91"29.94"29.97"30"30.03"30.03"30.03"30.03"30.03"30.03"30.03"30.03"30.03"30.03"30.03"30"29.97"29.97"
Wind Speed 3.4 mph2.6 mph2.3 mph3.1 mph5.5 mph9 mph8.9 mph6.5 mph4.6 mph2.2 mph1.2 mph0.7 mph1 mph1.2 mph0.8 mph0.6 mph0.8 mph0.4 mph0.9 mph2 mph4.3 mph5.9 mph7.5 mph8.6 mph9.6 mph10.2 mph11.3 mph13 mph9 mph5.7 mph3.4 mph6.6 mph12.3 mph7 mph3.7 mph2.9 mph2.4 mph3.1 mph3.5 mph3.3 mph2.1 mph2.6 mph2.1 mph3.1 mph3.6 mph4 mph5.2 mph6 mph
Wind
Direction
346°
NNW
348°
NNW
11°
N
34°
NE

N

N
357°
N
348°
NNW
341°
NNW
27°
NNE
102°
ESE
263°
W
293°
WNW
315°
NW
337°
NNW
354°
N
323°
NW
326°
NW
205°
SSW
221°
SW
239°
WSW
243°
WSW
248°
WSW
246°
WSW
241°
WSW
239°
WSW
253°
WSW
269°
W
256°
WSW
240°
WSW
191°
S
233°
SW
275°
W
278°
W
259°
W
253°
WSW
240°
WSW
240°
WSW
262°
W
283°
WNW
282°
WNW
302°
WNW
288°
WNW
293°
WNW
288°
WNW
267°
W
258°
WSW
263°
W

Daily Forecast

Date High Low Precip. Humidity
Today
Apr 19

Clouds
68 °F
48 °F
0%
26%
Saturday
Apr 20

Clouds
72 °F
54 °F
0%
25%
Sunday
Apr 21

Clouds
73 °F
54 °F
0%
25%
Monday
Apr 22

Clouds
70 °F
49 °F
0%
26%
Tuesday
Apr 23

Rain
72 °F
56 °F
99%
39%
Wednesday
Apr 24

Clouds
65 °F
54 °F
0%
20%
Thursday
Apr 25

Rain
61 °F
48 °F
20%
43%
Friday
Apr 26

Rain
56 °F
44 °F
98%
57%
Saturday
Apr 27

Clouds
58 °F
43 °F
0%
48%
Sunday
Apr 28

Clouds
63 °F
46 °F
0%
35%
Monday
Apr 29

Clouds
65 °F
51 °F
0%
31%
Tuesday
Apr 30

Clear
61 °F
42 °F
0%
26%
Wednesday
May 1

Clouds
69 °F
45 °F
0%
28%
Thursday
May 2

Rain
68 °F
54 °F
100%
23%
Friday
May 3

Rain
53 °F
45 °F
100%
61%
Saturday
May 4

Rain
60 °F
47 °F
36%
57%

Temperature 8-14 Day Outlook



Precipitation 8-14 Day Outlook




Quick Links
Rye Patch Reservoir News
Rye Patch Reservoir Photos
Rye Patch Reservoir Videos




About Us
Contact Us
Site Map
Search Site
Advertise With Us
   
RyePatch.USLakes.info
THE RYE PATCH RESERVOIR WEBSITE

Copyright 2024, Lakes Online
Privacy    |    Legal